Location: Unspecified
(0.0000°N, 0.0000°E)
Time: 02:49:20
(UTC+00:00)

Vanguard 1 - Pass Details

Date: 15 December 2023
Orbit: 653 x 3826 km, 34.3° (Epoch: 22 February)

Event Time Altitude Azimuth Distance (km) Brightness Sun altitude
Rises 03:24:58 0° 263° (W) 7,436 - -34.0°
Exits shadow 03:33:33 - 244° (WSW) 5,858 13.7 -32.1°
Reaches altitude 10° 03:34:12 10° 243° (WSW) 5,744 13.6 -31.9°
Maximum altitude 03:41:59 15° 214° (SW) 4,615 13.4 -30.2°
Drops below altitude 10° 03:48:05 10° 184° (S) 4,320 13.6 -28.9°
Sets 03:53:11 0° 160° (SSE) 4,694 14.2 -27.7°
